Flag for Russia Weather past 2 weeks in Murmansk, Russia

Now
39 °F

Partly sunny.


Feels Like: 34 °F
Forecast: 29 / 39 °F
Wind: 8 mph from Southwest

Location: Murmansk Airport


UV Index: 0 (Low)

Visibility: N/A


Pressure: 29.50 "Hg

Humidity: 65%

Dew point: 28 °F

Location of MurmanskLocation

Historic Weather in Murmansk

°F

Murmansk temperature yesterday

Maximum temperature yesterday: 37 °F (at 6:00 PM)
Minimum temperature yesterday: 30 °F (at 12:00 AM)
Average temperature yesterday: 33 °F

Past Weeks' High & Low Weather Summary

 TemperatureHumidityPressure
High45 °F (Apr 12, 3:30 PM)100% (Apr 15, 2:00 AM)30.24 "Hg (Apr 15, 2:00 AM)
Low0 °F (Apr 3, 7:00 AM)26% (Apr 10, 3:30 PM)29.09 "Hg (Apr 5, 9:00 AM)
Average29 °F70%29.60 "Hg
* Reported Apr 2 11:00 AM — Apr 17 11:00 AM, Murmansk, Weather by CustomWeather, © 2014

Note: Actual official high and low records may vary slightly from our data, if they occured in-between our weather recording intervals... More about our weather records

Advertising

Historic Weather Conditions — Data for Previous 24 hours

 ConditionsComfort  
Time TempWeatherWind HumidityBarometerVisibility
11:00 AM
Apr 17
39 °FPartly sunny.8 mph65%29.50 "HgN/A
10:00 AM39 °FPartly sunny.8 mph65%29.50 "HgN/A
9:30 AM39 °FPartly sunny.6 mph65%29.50 "HgN/A
9:00 AM37 °FPartly sunny.3 mph70%29.53 "HgN/A
8:30 AM37 °FPartly sunny.6 mph70%29.53 "HgN/A
8:00 AM36 °FPartly sunny.8 mph75%29.53 "HgN/A
7:30 AM36 °FPartly sunny.6 mph75%29.53 "HgN/A
7:00 AM34 °FPartly sunny.6 mph81%29.56 "HgN/A
6:30 AM34 °FPassing clouds.6 mph75%29.56 "HgN/A
6:00 AM34 °FPassing clouds.6 mph75%29.56 "HgN/A
5:30 AM36 °FPassing clouds.3 mph70%29.59 "HgN/A
5:00 AM34 °FSnow flurries. Passing clouds.3 mph70%29.59 "HgN/A
4:30 AM34 °FSnow flurries. Passing clouds.8 mph75%29.62 "HgN/A
4:00 AM36 °FSnow flurries. Passing clouds.6 mph65%29.62 "HgN/A
3:30 AM36 °FSnow flurries. Passing clouds.8 mph60%29.65 "HgN/A
3:00 AM36 °FSnow flurries. Passing clouds.8 mph60%29.65 "HgN/A
2:30 AM36 °FClear.8 mph56%29.68 "Hg10 mi
2:00 AM36 °FClear.8 mph56%29.68 "Hg10 mi
1:30 AM36 °FClear.6 mph56%29.68 "Hg10 mi
1:00 AM36 °FClear.6 mph60%29.71 "Hg10 mi
12:30 AM36 °FPartly cloudy.8 mph65%29.71 "HgN/A
12:00 AM34 °FPartly cloudy.8 mph70%29.74 "HgN/A
11:30 PM
Apr 16
34 °FPartly cloudy.8 mph75%29.74 "HgN/A
11:00 PM34 °FPartly cloudy.10 mph75%29.77 "HgN/A
10:30 PM34 °FBroken clouds.8 mph75%29.77 "HgN/A
10:00 PM34 °FBroken clouds.8 mph75%29.80 "HgN/A
9:30 PM36 °FPartly sunny.8 mph70%29.83 "HgN/A
9:00 PM36 °FPartly sunny.8 mph70%29.83 "HgN/A
8:30 PM36 °FPartly sunny.6 mph70%29.83 "HgN/A
8:00 PM36 °FPartly sunny.6 mph70%29.86 "HgN/A
7:30 PM36 °FPartly sunny.6 mph70%29.86 "HgN/A
7:00 PM37 °FPartly sunny.6 mph65%29.86 "HgN/A
6:30 PM37 °FPartly sunny.6 mph65%29.89 "HgN/A
6:00 PM37 °FPartly sunny.3 mph65%29.89 "HgN/A
5:00 PM36 °FPartly sunny.3 mph75%29.92 "HgN/A
4:30 PM36 °FPartly sunny.3 mph75%29.92 "HgN/A
4:00 PM36 °FPartly sunny.1 mph75%29.92 "HgN/A
3:30 PM36 °FPartly sunny.No wind70%29.95 "HgN/A
3:00 PM36 °FPartly sunny.1 mph70%29.95 "HgN/A
2:30 PM34 °FPartly sunny.3 mph75%29.95 "HgN/A
2:00 PM34 °FPartly sunny.3 mph75%29.95 "HgN/A
1:30 PM34 °FPartly sunny.6 mph75%29.95 "HgN/A
1:00 PM34 °FPartly sunny.3 mph75%29.95 "HgN/A
12:30 PM32 °FPartly sunny.6 mph80%29.95 "HgN/A
12:00 PM32 °FPartly sunny.6 mph80%29.95 "HgN/A
Weather by CustomWeather, © 2014

See weather overview